Weather History for Pampa, TX

Change the Weather History Date:

Wednesday, May 8, 2013

  Actual Average Record
Temperature  
Mean Temperature 70 °F -  
Max Temperature 85 °F 77 °F 96 °F (2011)
Min Temperature 54 °F 49 °F 33 °F (1976)
Cooling Degree Days 5    
Growing Degree Days 20 (Base 50)    
Moisture  
Dew Point 40 °F    
Average Humidity 39    
Maximum Humidity 64    
Minimum Humidity 11    
Precipitation  
Precipitation 0.00 in - - ()
Sea Level Pressure  
Sea Level Pressure 29.87 in    
Wind  
Wind Speed 19 mph (SSW)    
Max Wind Speed 29 mph    
Max Gust Speed 36 mph    
Visibility 10 miles    
Events      
Averages and records for this station are not official NWS values.
T = Trace of Precipitation, MM = Missing Value Source: NWS Daily Summary

Daily Weather History Graph

Daily Weather History Graph

Search for Another Location

Airport:

Trip Planner

Search our weather history database for the weather conditions in past years. The results will help you decide how hot, cold, wet, or windy it might be!

Date:

Astronomy

May. 08, 2013 Rise Set
Actual Time 6:44 AM CDT 8:36 PM CDT
Civil Twilight 6:16 AM CDT 9:04 PM CDT
Nautical Twilight 5:43 AM CDT 9:38 PM CDT
Astronomical Twilight 5:07 AM CDT 10:14 PM CDT
Moon 5:51 AM CDT (5/8) 7:38 PM CDT (5/8)
Length of Visible Light 14h 47m
Length of Day
13h 51m
Waning Crescent, 2% of the Moon is Illuminated
May 8
Waning Crescent
May 9
New
May 17
First Quarter
May 24
Full
May 31
Last Quarter

Hourly Weather History & Observations

Time (CDT) Temp. Dew Point Humidity Pressure Visibility Wind Dir Wind Speed Gust Speed Precip Events Conditions
12:15 AM 65.7 °F 43.7 °F 45% 29.90 in 10.0 mi South 19.6 mph 25.3 mph N/A   Clear
12:35 AM 65.5 °F 43.2 °F 44% 29.90 in 10.0 mi South 21.9 mph 28.8 mph N/A   Clear
12:55 AM 64.2 °F 42.8 °F 46% 29.91 in 10.0 mi South 19.6 mph 26.5 mph N/A   Clear
1:15 AM 62.2 °F 42.3 °F 48% 29.90 in 10.0 mi South 17.3 mph - N/A   Clear
1:35 AM 61.0 °F 41.5 °F 49% 29.90 in 10.0 mi South 17.3 mph - N/A   Clear
1:55 AM 60.3 °F 41.5 °F 50% 29.89 in 10.0 mi South 17.3 mph - N/A   Clear
2:15 AM 60.8 °F 41.2 °F 48% 29.89 in 10.0 mi South 19.6 mph - N/A   Clear
2:35 AM 60.6 °F 40.8 °F 48% 29.89 in 10.0 mi South 18.4 mph 24.2 mph N/A   Clear
2:55 AM 59.9 °F 40.5 °F 49% 29.88 in 10.0 mi South 16.1 mph - N/A   Clear
3:15 AM 59.5 °F 40.1 °F 49% 29.87 in 10.0 mi South 17.3 mph - N/A   Clear
3:35 AM 59.2 °F 39.7 °F 49% 29.87 in 10.0 mi South 17.3 mph - N/A   Clear
3:55 AM 58.6 °F 39.7 °F 49% 29.87 in 10.0 mi South 17.3 mph - N/A   Clear
4:15 AM 57.7 °F 40.1 °F 52% 29.87 in 10.0 mi South 16.1 mph - N/A   Clear
4:35 AM 57.6 °F 40.1 °F 52% 29.87 in 10.0 mi South 15.0 mph - N/A   Clear
4:55 AM 56.7 °F 40.3 °F 54% 29.87 in 10.0 mi South 15.0 mph - N/A   Clear
5:15 AM 55.9 °F 40.5 °F 56% 29.87 in 10.0 mi South 16.1 mph - N/A   Clear
5:35 AM 57.2 °F 41.2 °F 55% 29.87 in 10.0 mi South 16.1 mph - N/A   Clear
5:55 AM 56.5 °F 41.5 °F 57% 29.86 in 10.0 mi SSW 16.1 mph - N/A   Clear
6:15 AM 57.2 °F 42.8 °F 59% 29.86 in 10.0 mi SSW 18.4 mph 23.0 mph N/A   Clear
6:35 AM 58.1 °F 44.4 °F 60% 29.87 in 10.0 mi SSW 18.4 mph - N/A   Clear
6:55 AM 57.7 °F 44.8 °F 62% 29.87 in 10.0 mi SSW 18.4 mph 21.9 mph N/A   Clear
7:15 AM 58.1 °F 45.9 °F 64% 29.87 in 10.0 mi SSW 17.3 mph - N/A   Clear
7:35 AM 59.4 °F 47.1 °F 64% 29.88 in 10.0 mi SSW 19.6 mph 24.2 mph N/A   Clear
7:55 AM 60.8 °F 48.0 °F 63% 29.87 in 10.0 mi SSW 20.7 mph 26.5 mph N/A   Clear
8:15 AM 62.6 °F 49.6 °F 63% 29.88 in 10.0 mi SSW 26.5 mph 32.2 mph N/A   Clear
8:35 AM 64.6 °F 50.9 °F 61% 29.88 in 10.0 mi SSW 27.6 mph 33.4 mph N/A   Clear
8:55 AM 67.3 °F 52.7 °F 59% 29.89 in 10.0 mi SW 25.3 mph 34.5 mph N/A   Clear
9:15 AM 68.7 °F 52.7 °F 57% 29.89 in 10.0 mi SW 26.5 mph 35.7 mph N/A   Clear
9:35 AM 70.7 °F 52.9 °F 53% 29.89 in 10.0 mi SW 28.8 mph 33.4 mph N/A   Clear
9:55 AM 71.6 °F 52.2 °F 50% 29.89 in 10.0 mi SW 26.5 mph 32.2 mph N/A   Clear
10:15 AM 71.6 °F 52.0 °F 50% 29.89 in 10.0 mi SW 26.5 mph 32.2 mph N/A   Clear
10:35 AM 73.2 °F 51.4 °F 46% 29.90 in 10.0 mi SW 21.9 mph 29.9 mph N/A   Clear
10:55 AM 75.4 °F 50.2 °F 41% 29.90 in 10.0 mi SW 21.9 mph 28.8 mph N/A   Clear
11:15 AM 75.6 °F 48.7 °F 39% 29.91 in 10.0 mi SW 23.0 mph 26.5 mph N/A   Clear
11:35 AM 76.5 °F 46.2 °F 34% 29.91 in 10.0 mi SW 17.3 mph 21.9 mph N/A   Clear
11:55 AM 78.4 °F 40.3 °F 26% 29.91 in 10.0 mi West 18.4 mph 23.0 mph N/A   Clear
12:15 PM 79.0 °F 38.8 °F 24% 29.90 in 10.0 mi WSW 18.4 mph 25.3 mph N/A   Clear
12:35 PM 81.9 °F 31.8 °F 16% 29.90 in 10.0 mi West 18.4 mph 27.6 mph N/A   Clear
12:55 PM 81.5 °F 25.9 °F 13% 29.89 in 10.0 mi SW 20.7 mph 26.5 mph N/A   Clear
1:15 PM 81.3 °F 28.8 °F 15% 29.89 in 10.0 mi WSW 13.8 mph 25.3 mph N/A   Clear
1:35 PM 80.8 °F 31.5 °F 17% 29.89 in 10.0 mi SSW 17.3 mph 23.0 mph N/A   Clear
1:55 PM 82.9 °F 29.7 °F 14% 29.88 in 10.0 mi WSW 11.5 mph 21.9 mph N/A   Clear
2:15 PM 81.9 °F 27.7 °F 14% 29.88 in 10.0 mi WSW 16.1 mph 19.6 mph N/A   Clear
2:35 PM 82.8 °F 28.2 °F 14% 29.87 in 10.0 mi SSW 17.3 mph 21.9 mph N/A   Scattered Clouds
2:55 PM 84.7 °F 27.9 °F 13% 29.87 in 10.0 mi SSW 24.2 mph 32.2 mph N/A   Scattered Clouds
3:15 PM 82.9 °F 28.2 °F 14% 29.87 in 10.0 mi SSW 17.3 mph 27.6 mph N/A   Scattered Clouds
3:35 PM 80.8 °F 29.8 °F 16% 29.86 in 10.0 mi SW 12.7 mph 24.2 mph N/A   Scattered Clouds
3:55 PM 83.1 °F 28.2 °F 14% 29.85 in 10.0 mi SW 18.4 mph 29.9 mph N/A   Scattered Clouds
4:15 PM 84.7 °F 27.5 °F 13% 29.84 in 10.0 mi SSW 20.7 mph 28.8 mph N/A   Scattered Clouds
4:35 PM 82.0 °F 25.7 °F 13% 29.83 in 10.0 mi SW 13.8 mph 18.4 mph N/A   Scattered Clouds
4:55 PM 82.0 °F 25.7 °F 13% 29.82 in 10.0 mi WSW 13.8 mph 27.6 mph N/A   Clear
5:15 PM 85.8 °F 27.0 °F 12% 29.81 in 10.0 mi WSW 19.6 mph 28.8 mph N/A   Scattered Clouds
5:35 PM 83.7 °F 26.8 °F 13% 29.80 in 10.0 mi SW 13.8 mph - N/A   Clear
5:55 PM 85.3 °F 26.1 °F 12% 29.80 in 10.0 mi WSW 20.7 mph - N/A   Clear
6:15 PM 84.7 °F 25.3 °F 11% 29.80 in 10.0 mi WSW 15.0 mph 21.9 mph N/A   Clear
6:35 PM 82.6 °F 24.6 °F 12% 29.80 in 10.0 mi SW 18.4 mph 27.6 mph N/A   Clear
6:55 PM 82.2 °F 24.6 °F 12% 29.80 in 10.0 mi WSW 19.6 mph 24.2 mph N/A   Clear
7:15 PM 82.0 °F 24.8 °F 12% 29.81 in 10.0 mi SW 11.5 mph - N/A   Clear
7:35 PM 74.8 °F 51.8 °F 44% 29.81 in 10.0 mi SSE 16.1 mph - N/A   Clear
7:55 PM 72.9 °F 50.5 °F 45% 29.82 in 10.0 mi SSE 21.9 mph 26.5 mph N/A   Clear
8:15 PM 71.2 °F 49.8 °F 47% 29.83 in 10.0 mi South 15.0 mph 23.0 mph N/A   Clear
8:35 PM 70.0 °F 50.9 °F 51% 29.84 in 10.0 mi South 15.0 mph 25.3 mph N/A   Clear
8:55 PM 69.3 °F 51.4 °F 53% 29.85 in 10.0 mi South 16.1 mph 21.9 mph N/A   Clear
9:15 PM 68.9 °F 51.6 °F 54% 29.85 in 10.0 mi South 12.7 mph - N/A   Clear
9:35 PM 67.1 °F 52.0 °F 58% 29.85 in 10.0 mi South 12.7 mph - N/A   Clear
9:55 PM 66.4 °F 46.4 °F 49% 29.89 in 10.0 mi WNW 16.1 mph 24.2 mph N/A   Scattered Clouds
10:15 PM 63.3 °F 39.2 °F 41% 29.90 in 10.0 mi North 26.5 mph 34.5 mph N/A   Scattered Clouds
10:35 PM 61.5 °F 39.6 °F 44% 29.91 in 10.0 mi North 24.2 mph 28.8 mph N/A   Clear
11:15 PM 58.5 °F 40.5 °F 51% 29.94 in 10.0 mi North 17.3 mph 23.0 mph N/A   Clear
11:55 PM 54.7 °F 41.9 °F 62% 29.94 in 10.0 mi North 10.4 mph - N/A   Clear